+ View the NASA Portal
+ Center for Near-Earth Object Studies
IMPORTANT:
The SSD Announcement email list is now available. Major changes are coming in the near future, including possible hostname and/or URL changes. To be notified of such changes, subscribe to this email list.
Please visit
this page
for more details.
Don't show this message again
JPL Small-Body Database Browser
Search:
[
help
]
344138 (2000 ES153)
Classification:
Main-belt Asteroid
SPK-ID:
2344138
[
Ephemeris
|
Orbit Diagram
|
Orbital Elements
|
Mission Design
|
Physical Parameters
|
Discovery Circumstances
|
Close-Approach Data
]
[ show orbit diagram ]
Orbital Elements at Epoch 2458600.5 (2019-Apr-27.0) TDB
Reference:
JPL 16
(heliocentric ecliptic J2000)
Element
Value
Uncertainty (1-sigma)
Units
e
.1442362064151002
5.3347e-08
a
2.766646776712813
2.9888e-08
au
q
2.367596141149192
1.4662e-07
au
i
9.625397502766278
7.2936e-06
deg
node
176.6869977220364
3.9868e-05
deg
peri
306.569631127422
4.9342e-05
deg
M
97.63972784834957
3.107e-05
deg
t
p
2458144.617354848881
(2018-Jan-26.11735485)
0.00014224
TDB
period
1680.850160800371
4.60
2.7238e-05
7.457e-08
d
yr
n
.2141773302556479
3.4707e-09
deg/d
Q
3.165697412276434
3.4199e-08
au
Orbit Determination Parameters
# obs. used (total)
243
data-arc span
7055 days (19.32 yr)
first obs. used
2000-03-06
last obs. used
2019-06-30
planetary ephem.
DE431
SB-pert. ephem.
SB431-N16
condition code
0
norm. resid. RMS
.55369
source
ORB
producer
Otto Matic
solution date
2019-Sep-24 06:29:17
Additional Information
Earth MOID
= 1.39731 au
Jupiter MOID
= 1.94059 au
T_jup
= 3.304
[ show covariance matrix ]
[
Ephemeris
|
Orbit Diagram
|
Orbital Elements
|
Mission Design
|
Physical Parameters
|
Discovery Circumstances
|
Close-Approach Data
]
Physical Parameter Table
Parameter
Symbol
Value
Units
Sigma
Reference
Notes
absolute magnitude
H
16.1
n/a
MPO437458
344138 (2000 ES153)
Discovered 2000-Mar-06 by NEAT at Haleakala
Reference:
20121128/Numbers.arc
Last Updated:
2012-12-03
[ show close-approach data ]
[
Ephemeris
|
Orbit Diagram
|
Orbital Elements
|
Mission Design
|
Physical Parameters
|
Discovery Circumstances
|
Close-Approach Data
]
2019-Dec-07 02:03 UT
(server date/time)
Site Manager:
Ryan S. Park
Webmaster
:
Alan B. Chamberlin